| time (UTC) | temp C | wind direction | speed KPH | gust KPH | rain 1hr cm | rain 24hr cm | rain mn cm | humidity % | barometer mb |
| 20260831040005 | 26 | 176 | 6.4 | 24.1 | 0.00 | 0.00 | 0.00 | 42 | 1017.7 |
| 20260831035506 | 26 | 202 | 9.7 | 24.1 | 0.00 | 0.00 | 0.00 | 42 | 1017.7 |
| 20260831035004 | 26 | 125 | 9.7 | 20.9 | 0.00 | 0.00 | 0.00 | 42 | 1017.6 |
| 20260831034506 | 26 | 271 | 8.0 | 24.1 | 0.00 | 0.00 | 0.00 | 42 | 1017.7 |
| 20260831034005 | 26 | 169 | 9.7 | 24.1 | 0.00 | 0.00 | 0.00 | 43 | 1017.7 |
| 20260831033507 | 26 | 187 | 9.7 | 27.4 | 0.00 | 0.00 | 0.00 | 42 | 1017.8 |
| 20260831033004 | 26 | 226 | 9.7 | 27.4 | 0.00 | 0.00 | 0.00 | 42 | 1017.5 |
| 20260831032503 | 26 | 206 | 8.0 | 20.9 | 0.00 | 0.00 | 0.00 | 41 | 1017.5 |
| 20260831031002 | 26 | 166 | 8.0 | 17.7 | 0.00 | 0.00 | 0.00 | 43 | 1017.3 |
| 20260831030459 | 26 | 193 | 8.0 | 29.0 | 0.00 | 0.00 | 0.00 | 43 | 1017.3 |
| 20260831025958 | 26 | 172 | 8.0 | 29.0 | 0.00 | 0.00 | 0.00 | 44 | 1017.3 |
| 20260831025458 | 26 | 207 | 8.0 | 22.5 | 0.00 | 0.00 | 0.00 | 44 | 1017.2 |
| 20260831024959 | 26 | 220 | 8.0 | 22.5 | 0.00 | 0.00 | 0.00 | 44 | 1017.3 |
| 20260831024453 | 26 | 120 | 8.0 | 22.5 | 0.00 | 0.00 | 0.00 | 44 | 1017.2 |
| 20260831023949 | 26 | 203 | 8.0 | 30.6 | 0.00 | 0.00 | 0.00 | 43 | 1017.3 |
| 20260831023441 | 27 | 186 | 6.4 | 30.6 | 0.00 | 0.00 | 0.00 | 41 | 1017.2 |
| 20260831022935 | 27 | 195 | 6.4 | 22.5 | 0.00 | 0.00 | 0.00 | 39 | 1017.2 |
| 20260831022428 | 27 | 158 | 6.4 | 22.5 | 0.00 | 0.00 | 0.00 | 38 | 1017.0 |
| 20260831021923 | 27 | 144 | 6.4 | 38.6 | 0.00 | 0.00 | 0.00 | 37 | 1016.9 |
| 20260831021417 | 27 | 137 | 4.8 | 19.3 | 0.00 | 0.00 | 0.00 | 36 | 1016.8 |
| 20260831020911 | 28 | 141 | 4.8 | 17.7 | 0.00 | 0.00 | 0.00 | 37 | 1016.8 |
| 20260831020404 | 28 | 203 | 6.4 | 16.1 | 0.00 | 0.00 | 0.00 | 36 | 1016.9 |
| 20260831015906 | 28 | 222 | 8.0 | 27.4 | 0.00 | 0.00 | 0.00 | 35 | 1017.0 |
| 20260831015404 | 28 | 168 | 4.8 | 27.4 | 0.00 | 0.00 | 0.00 | 34 | 1017.0 |
| 20260831014907 | 29 | 181 | 3.2 | 12.9 | 0.00 | 0.00 | 0.00 | 30 | 1016.9 |
| 20260831014404 | 29 | 113 | 3.2 | 12.9 | 0.00 | 0.00 | 0.00 | 27 | 1016.9 |
| 20260831013900 | 30 | 217 | 4.8 | 17.7 | 0.00 | 0.00 | 0.00 | 23 | 1016.9 |
| 20260831013402 | 30 | 275 | 6.4 | 17.7 | 0.00 | 0.00 | 0.00 | 22 | 1016.8 |
| 20260831012900 | 30 | 206 | 6.4 | 16.1 | 0.00 | 0.00 | 0.00 | 22 | 1016.7 |
| 20260831012358 | 30 | 223 | 8.0 | 22.5 | 0.00 | 0.00 | 0.00 | 21 | 1016.8 |
| 20260831011856 | 30 | 242 | 8.0 | 22.5 | 0.00 | 0.00 | 0.00 | 21 | 1016.8 |
| 20260831011359 | 31 | 288 | 8.0 | 19.3 | 0.00 | 0.00 | 0.00 | 20 | 1016.9 |
| 20260831010857 | 31 | 253 | 8.0 | 17.7 | 0.00 | 0.00 | 0.00 | 20 | 1016.8 |
| 20260831010358 | 31 | 231 | 9.7 | 22.5 | 0.00 | 0.00 | 0.00 | 20 | 1017.0 |
| 20260831005857 | 31 | 262 | 11.3 | 24.1 | 0.00 | 0.00 | 0.00 | 20 | 1017.0 |
| 20260831005400 | 31 | 345 | 11.3 | 24.1 | 0.00 | 0.00 | 0.00 | 20 | 1017.0 |
| 20260831004856 | 31 | 233 | 9.7 | 24.1 | 0.00 | 0.00 | 0.00 | 19 | 1016.9 |
| 20260831004357 | 31 | 294 | 9.7 | 22.5 | 0.00 | 0.00 | 0.00 | 20 | 1016.9 |
| 20260831003857 | 31 | 264 | 9.7 | 17.7 | 0.00 | 0.00 | 0.00 | 19 | 1016.8 |
| 20260831003352 | 31 | 217 | 9.7 | 17.7 | 0.00 | 0.00 | 0.00 | 19 | 1016.8 |
| 20260831002845 | 31 | 218 | 9.7 | 29.0 | 0.00 | 0.00 | 0.00 | 19 | 1016.8 |
| 20260831002339 | 31 | 259 | 11.3 | 29.0 | 0.00 | 0.00 | 0.00 | 19 | 1016.5 |
| 20260831001833 | 31 | 285 | 11.3 | 24.1 | 0.00 | 0.00 | 0.00 | 20 | 1016.6 |
| 20260831001327 | 31 | 285 | 11.3 | 24.1 | 0.00 | 0.00 | 0.00 | 21 | 1016.6 |
| 20260831000821 | 31 | 216 | 9.7 | 22.5 | 0.00 | 0.00 | 0.00 | 20 | 1016.5 |
| 20260831000318 | 32 | 297 | 11.3 | 22.5 | 0.00 | 0.00 | 0.00 | 20 | 1016.4 |
| 20260830235305 | 32 | 237 | 11.3 | 29.0 | 0.00 | 0.00 | 0.00 | 19 | 1016.6 |
| 20260830234757 | 32 | 176 | 11.3 | 29.0 | 0.00 | 0.00 | 0.00 | 19 | 1016.7 |
| 20260830234251 | 32 | 257 | 8.0 | 25.7 | 0.00 | 0.00 | 0.00 | 17 | 1016.7 |
| 20260830233745 | 32 | 283 | 6.4 | 17.7 | 0.00 | 0.00 | 0.00 | 17 | 1016.7 |
| 20260830232733 | 32 | 195 | 8.0 | 24.1 | 0.00 | 0.00 | 0.00 | 17 | 1016.7 |
| 20260830232227 | 32 | 229 | 8.0 | 24.1 | 0.00 | 0.00 | 0.00 | 17 | 1016.6 |
| 20260830231216 | 32 | 330 | 8.0 | 22.5 | 0.00 | 0.00 | 0.00 | 17 | 1016.7 |
| 20260830230709 | 32 | 300 | 12.9 | 32.2 | 0.00 | 0.00 | 0.00 | 18 | 1016.8 |
| 20260830225657 | 32 | 271 | 14.5 | 30.6 | 0.00 | 0.00 | 0.00 | 17 | 1016.9 |
| 20260830225151 | 32 | 279 | 12.9 | 30.6 | 0.00 | 0.00 | 0.00 | 17 | 1017.0 |
| 20260830223634 | 32 | 290 | 8.0 | 22.5 | 0.00 | 0.00 | 0.00 | 16 | 1017.0 |
| 20260830223127 | 32 | 170 | 9.7 | 22.5 | 0.00 | 0.00 | 0.00 | 16 | 1017.0 |
| 20260830222621 | 32 | 293 | 11.3 | 33.8 | 0.00 | 0.00 | 0.00 | 17 | 1017.0 |
| 20260830222115 | 32 | 202 | 11.3 | 33.8 | 0.00 | 0.00 | 0.00 | 16 | 1017.0 |
| 20260830221610 | 33 | 139 | 8.0 | 20.9 | 0.00 | 0.00 | 0.00 | 17 | 1017.2 |
| 20260830220557 | 32 | 107 | 6.4 | 27.4 | 0.00 | 0.00 | 0.00 | 19 | 1017.4 |
| 20260830220051 | 31 | 136 | 8.0 | 27.4 | 0.00 | 0.00 | 0.00 | 21 | 1017.4 |
| 20260830215545 | 31 | 188 | 9.7 | 24.1 | 0.00 | 0.00 | 0.00 | 20 | 1017.5 |
| 20260830215039 | 32 | 276 | 11.3 | 24.1 | 0.00 | 0.00 | 0.00 | 19 | 1017.6 |
| 20260830214533 | 32 | 153 | 11.3 | 29.0 | 0.00 | 0.00 | 0.00 | 19 | 1017.6 |
| 20260830214027 | 32 | 141 | 4.8 | 24.1 | 0.00 | 0.00 | 0.00 | 18 | 1017.5 |
| 20260830213521 | 32 | 281 | 3.2 | 17.7 | 0.00 | 0.00 | 0.00 | 19 | 1017.6 |
| 20260830212004 | 31 | 179 | 8.0 | 30.6 | 0.00 | 0.00 | 0.00 | 20 | 1017.8 |
| 20260830211457 | 31 | 167 | 8.0 | 25.7 | 0.00 | 0.00 | 0.00 | 22 | 1017.7 |
| 20260830210951 | 31 | 261 | 8.0 | 19.3 | 0.00 | 0.00 | 0.00 | 21 | 1018.1 |
| 20260830205940 | 31 | 236 | 6.4 | 19.3 | 0.00 | 0.00 | 0.00 | 22 | 1018.1 |
| 20260830204933 | 31 | 155 | 11.3 | 24.1 | 0.00 | 0.00 | 0.00 | 20 | 1018.2 |
| 20260830204438 | 31 | 123 | 9.7 | 20.9 | 0.00 | 0.00 | 0.00 | 20 | 1018.3 |
| 20260830203935 | 31 | 277 | 8.0 | 22.5 | 0.00 | 0.00 | 0.00 | 21 | 1018.3 |
| 20260830203436 | 31 | 245 | 6.4 | 27.4 | 0.00 | 0.00 | 0.00 | 22 | 1018.4 |
| 20260830202934 | 31 | 210 | 8.0 | 27.4 | 0.00 | 0.00 | 0.00 | 23 | 1018.3 |
| 20260830202431 | 30 | 169 | 9.7 | 29.0 | 0.00 | 0.00 | 0.00 | 24 | 1018.3 |
| 20260830201431 | 31 | 204 | 4.8 | 24.1 | 0.00 | 0.00 | 0.00 | 28 | 1018.4 |
| 20260830200931 | 31 | 84 | 9.7 | 27.4 | 0.00 | 0.00 | 0.00 | 29 | 1018.8 |
| 20260830200431 | 31 | 235 | 11.3 | 35.4 | 0.00 | 0.00 | 0.00 | 28 | 1018.6 |
| 20260830195931 | 31 | 100 | 9.7 | 35.4 | 0.00 | 0.00 | 0.00 | 27 | 1018.9 |
| 20260830195430 | 31 | 80 | 9.7 | 30.6 | 0.00 | 0.00 | 0.00 | 28 | 1018.4 |
| 20260830194930 | 31 | 164 | 8.0 | 30.6 | 0.00 | 0.00 | 0.00 | 26 | 1018.5 |
| 20260830194429 | 31 | 327 | 8.0 | 29.0 | 0.00 | 0.00 | 0.00 | 26 | 1018.5 |
| 20260830193922 | 31 | 135 | 9.7 | 30.6 | 0.00 | 0.00 | 0.00 | 25 | 1018.8 |
| 20260830193424 | 31 | 249 | 9.7 | 30.6 | 0.00 | 0.00 | 0.00 | 25 | 1018.9 |
| 20260830192923 | 31 | 55 | 8.0 | 22.5 | 0.00 | 0.00 | 0.00 | 26 | 1019.0 |
| 20260830192422 | 31 | 112 | 8.0 | 30.6 | 0.00 | 0.00 | 0.00 | 27 | 1019.0 |
| 20260830191422 | 31 | 186 | 11.3 | 30.6 | 0.00 | 0.00 | 0.00 | 26 | 1019.1 |
| 20260830190424 | 31 | 149 | 8.0 | 29.0 | 0.00 | 0.00 | 0.00 | 25 | 1019.3 |
| 20260830185923 | 31 | 257 | 9.7 | 27.4 | 0.00 | 0.00 | 0.00 | 26 | 1019.3 |
| 20260830185418 | 31 | 195 | 11.3 | 27.4 | 0.00 | 0.00 | 0.00 | 26 | 1019.1 |
| 20260830184918 | 30 | 164 | 9.7 | 27.4 | 0.00 | 0.00 | 0.00 | 27 | 1019.3 |
| 20260830183419 | 30 | 216 | 11.3 | 29.0 | 0.00 | 0.00 | 0.00 | 27 | 1019.4 |
| 20260830182917 | 31 | 129 | 11.3 | 27.4 | 0.00 | 0.00 | 0.00 | 26 | 1019.6 |
| 20260830182417 | 30 | 96 | 9.7 | 27.4 | 0.00 | 0.00 | 0.00 | 26 | 1019.7 |
| 20260830181918 | 30 | 257 | 8.0 | 25.7 | 0.00 | 0.00 | 0.00 | 26 | 1019.4 |
| 20260830181420 | 30 | 115 | 8.0 | 25.7 | 0.00 | 0.00 | 0.00 | 28 | 1019.6 |
| 20260830180914 | 30 | 110 | 8.0 | 25.7 | 0.00 | 0.00 | 0.00 | 27 | 1019.6 |
| 20260830180411 | 30 | 200 | 11.3 | 35.4 | 0.00 | 0.00 | 0.00 | 27 | 1019.6 |
| 20260830175912 | 30 | 101 | 11.3 | 35.4 | 0.00 | 0.00 | 0.00 | 28 | 1019.6 |
| 20260830175411 | 30 | 107 | 9.7 | 27.4 | 0.00 | 0.00 | 0.00 | 28 | 1019.6 |
| 20260830174913 | 30 | 355 | 9.7 | 27.4 | 0.00 | 0.00 | 0.00 | 28 | 1019.4 |
| 20260830174410 | 30 | 123 | 9.7 | 24.1 | 0.00 | 0.00 | 0.00 | 28 | 1019.4 |
| 20260830173911 | 30 | 154 | 11.3 | 33.8 | 0.00 | 0.00 | 0.00 | 29 | 1019.6 |
| 20260830173409 | 29 | 92 | 11.3 | 33.8 | 0.00 | 0.00 | 0.00 | 30 | 1019.4 |
| 20260830172908 | 29 | 89 | 9.7 | 27.4 | 0.00 | 0.00 | 0.00 | 31 | 1019.6 |
| 20260830172410 | 29 | 304 | 9.7 | 27.4 | 0.00 | 0.00 | 0.00 | 30 | 1019.6 |
| 20260830171909 | 29 | 172 | 9.7 | 24.1 | 0.00 | 0.00 | 0.00 | 31 | 1019.6 |
| 20260830171410 | 29 | 198 | 9.7 | 30.6 | 0.00 | 0.00 | 0.00 | 31 | 1019.6 |
| 20260830170902 | 29 | 287 | 9.7 | 30.6 | 0.00 | 0.00 | 0.00 | 32 | 1019.6 |
| 20260830170401 | 29 | 116 | 9.7 | 25.7 | 0.00 | 0.00 | 0.00 | 31 | 1019.6 |
| 20260830165903 | 28 | 184 | 9.7 | 25.7 | 0.00 | 0.00 | 0.00 | 32 | 1019.4 |
| 20260830165406 | 29 | 69 | 8.0 | 25.7 | 0.00 | 0.00 | 0.00 | 32 | 1019.6 |
| 20260830164900 | 28 | 146 | 8.0 | 19.3 | 0.00 | 0.00 | 0.00 | 33 | 1019.4 |
| 20260830164359 | 28 | 109 | 6.4 | 25.7 | 0.00 | 0.00 | 0.00 | 33 | 1019.3 |
| 20260830163900 | 28 | 179 | 4.8 | 25.7 | 0.00 | 0.00 | 0.00 | 34 | 1019.4 |
| 20260830163357 | 28 | 207 | 8.0 | 32.2 | 0.00 | 0.00 | 0.00 | 34 | 1019.3 |
| 20260830162857 | 28 | 200 | 11.3 | 33.8 | 0.00 | 0.00 | 0.00 | 34 | 1019.2 |
| 20260830162355 | 28 | 137 | 11.3 | 33.8 | 0.00 | 0.00 | 0.00 | 34 | 1019.3 |
| 20260830160855 | 27 | 117 | 9.7 | 32.2 | 0.00 | 0.00 | 0.00 | 35 | 1019.3 |
| 20260830160355 | 27 | 205 | 9.7 | 22.5 | 0.00 | 0.00 | 0.00 | 34 | 1019.2 |
| 20260830155855 | 27 | 65 | 11.3 | 27.4 | 0.00 | 0.00 | 0.00 | 36 | 1019.2 |
| 20260830155400 | 27 | 176 | 12.9 | 30.6 | 0.00 | 0.00 | 0.00 | 36 | 1019.1 |
| 20260830154353 | 27 | 172 | 11.3 | 29.0 | 0.00 | 0.00 | 0.00 | 37 | 1019.2 |
| 20260830153339 | 27 | 220 | 11.3 | 30.6 | 0.00 | 0.00 | 0.00 | 37 | 1019.2 |
| 20260830152833 | 26 | 276 | 11.3 | 40.2 | 0.00 | 0.00 | 0.00 | 37 | 1019.4 |
| 20260830152330 | 26 | 159 | 11.3 | 40.2 | 0.00 | 0.00 | 0.00 | 38 | 1019.4 |
| 20260830151821 | 26 | 144 | 12.9 | 29.0 | 0.00 | 0.00 | 0.00 | 39 | 1019.3 |
| 20260830151315 | 26 | 219 | 12.9 | 29.0 | 0.00 | 0.00 | 0.00 | 39 | 1019.2 |
| 20260830150809 | 26 | 172 | 9.7 | 24.1 | 0.00 | 0.00 | 0.00 | 39 | 1019.2 |
| 20260830150303 | 26 | 158 | 9.7 | 27.4 | 0.00 | 0.00 | 0.00 | 39 | 1019.2 |
| 20260830145757 | 26 | 185 | 11.3 | 27.4 | 0.00 | 0.00 | 0.00 | 40 | 1019.1 |
| 20260830145252 | 26 | 192 | 11.3 | 30.6 | 0.00 | 0.00 | 0.00 | 41 | 1019.1 |
| 20260830144745 | 26 | 187 | 11.3 | 30.6 | 0.00 | 0.00 | 0.00 | 42 | 1019.1 |
| 20260830144239 | 25 | 200 | 11.3 | 29.0 | 0.00 | 0.00 | 0.00 | 42 | 1019.1 |
| 20260830143733 | 25 | 160 | 9.7 | 27.4 | 0.00 | 0.00 | 0.00 | 42 | 1019.1 |
| 20260830143227 | 25 | 167 | 11.3 | 27.4 | 0.00 | 0.00 | 0.00 | 43 | 1019.1 |
| 20260830142721 | 25 | 123 | 12.9 | 27.4 | 0.00 | 0.00 | 0.00 | 43 | 1019.1 |
| 20260830142218 | 25 | 217 | 12.9 | 30.6 | 0.00 | 0.00 | 0.00 | 44 | 1019.0 |
| 20260830141720 | 25 | 190 | 11.3 | 30.6 | 0.00 | 0.00 | 0.00 | 44 | 1019.1 |
| 20260830140717 | 25 | 171 | 8.0 | 29.0 | 0.00 | 0.00 | 0.00 | 44 | 1019.1 |
| 20260830140219 | 24 | 186 | 8.0 | 29.0 | 0.00 | 0.00 | 0.00 | 45 | 1019.1 |
| 20260830135719 | 24 | 108 | 9.7 | 22.5 | 0.00 | 0.00 | 0.00 | 45 | 1019.0 |
| 20260830135219 | 24 | 198 | 6.4 | 22.5 | 0.00 | 0.00 | 0.00 | 46 | 1019.0 |
| 20260830133620 | -17 | 0.0 | 0.0 | 0.00 | 0.00 | 0.00 | 1018.9 | ||
| 20260830133115 | -17 | 0.0 | 0.0 | 0.00 | 0.00 | 0.00 | 1018.8 |